Zurück zum Katalog

FENGYUN 1C DEB

AktivSSO
NORAD 33613·DEBRIS·🇨🇳 China

Gestartet May 10, 1999 von Taiyuan Satellite Launch Center

Loading…

Nächste Überflüge (nächste 24 Stunden)

TLE

AktuellSource: Space-Track

Epoche: Sep 14, 2026, 10:36 UTC

1 33613U 99025DCW 26257.44197865  .00002826  00000-0  98797-3 0  9998
2 33613  98.6794 335.6427 0027565 354.6520   5.4367 14.35779112684633

Verfolge FENGYUN 1C DEB in Echtzeit mit AllMySat

Download on the App Store